| time (UTC) | temp F | wind direction | speed MPH | gust MPH | rain 1hr in | rain 24hr in | rain mn in | humidity % | barometer mb |
| 20260504090105 | 65 | 0 | 0.0 | 3.0 | 0.00 | 0.00 | 0.00 | 79 | 1016.5 |
| 20260504081555 | 65 | 68 | 1.0 | 4.0 | 0.00 | 0.00 | 0.00 | 80 | 1016.6 |
| 20260504044559 | 68 | 0 | 1.0 | 4.0 | 0.00 | 0.00 | 0.00 | 72 | 1018.0 |
| 20260504043055 | 68 | 52 | 2.0 | 4.0 | 0.00 | 0.00 | 0.00 | 72 | 1018.0 |
| 20260504041554 | 68 | 66 | 2.0 | 4.0 | 0.00 | 0.00 | 0.00 | 72 | 1017.9 |
| 20260504040103 | 68 | 72 | 0.0 | 3.0 | 0.00 | 0.00 | 0.00 | 72 | 1017.9 |
| 20260504034559 | 68 | 70 | 1.0 | 3.0 | 0.00 | 0.00 | 0.00 | 71 | 1017.9 |
| 20260504033126 | 69 | 71 | 2.0 | 4.0 | 0.00 | 0.00 | 0.00 | 71 | 1018.1 |
| 20260504031557 | 69 | 84 | 1.0 | 5.0 | 0.00 | 0.00 | 0.00 | 70 | 1018.0 |
| 20260504030116 | 69 | 98 | 2.0 | 5.0 | 0.00 | 0.00 | 0.00 | 70 | 1018.0 |
| 20260504024556 | 69 | 48 | 3.0 | 7.0 | 0.00 | 0.02 | 0.00 | 69 | 1017.9 |
| 20260504023101 | 69 | 74 | 3.0 | 9.0 | 0.00 | 0.02 | 0.00 | 69 | 1018.0 |
| 20260504021557 | 69 | 110 | 2.0 | 6.0 | 0.00 | 0.02 | 0.00 | 69 | 1017.9 |
| 20260504014557 | 69 | 65 | 3.0 | 6.0 | 0.00 | 0.02 | 0.00 | 69 | 1017.6 |
| 20260504013109 | 69 | 98 | 3.0 | 6.0 | 0.00 | 0.02 | 0.00 | 69 | 1017.3 |
| 20260504011559 | 70 | 68 | 3.0 | 7.0 | 0.00 | 0.02 | 0.00 | 68 | 1017.3 |
| 20260504010113 | 70 | 76 | 3.0 | 8.0 | 0.00 | 0.02 | 0.00 | 67 | 1017.2 |
| 20260504004627 | 71 | 82 | 2.0 | 6.0 | 0.00 | 0.02 | 0.00 | 66 | 1017.1 |
| 20260504003056 | 71 | 67 | 3.0 | 9.0 | 0.00 | 0.02 | 0.00 | 65 | 1017.1 |
| 20260504001612 | 72 | 136 | 5.0 | 11.0 | 0.00 | 0.02 | 0.00 | 63 | 1016.9 |
| 20260504000056 | 73 | 84 | 2.0 | 8.0 | 0.00 | 0.02 | 0.00 | 60 | 1016.5 |
| 20260503234557 | 73 | 70 | 3.0 | 8.0 | 0.00 | 0.02 | 0.00 | 59 | 1016.4 |
| 20260503233054 | 74 | 76 | 2.0 | 6.0 | 0.00 | 0.02 | 0.00 | 58 | 1016.5 |
| 20260503231558 | 75 | 86 | 3.0 | 8.0 | 0.00 | 0.02 | 0.00 | 57 | 1016.3 |
| 20260503230100 | 76 | 105 | 3.0 | 6.0 | 0.00 | 0.02 | 0.00 | 55 | 1016.4 |
| 20260503224556 | 76 | 120 | 3.0 | 7.0 | 0.00 | 0.02 | 0.00 | 54 | 1016.4 |
| 20260503223059 | 78 | 100 | 4.0 | 8.0 | 0.00 | 0.02 | 0.00 | 52 | 1016.3 |
| 20260503221554 | 78 | 82 | 2.0 | 9.0 | 0.00 | 0.02 | 0.00 | 53 | 1016.3 |
| 20260503220056 | 78 | 1 | 3.0 | 11.0 | 0.00 | 0.02 | 0.00 | 52 | 1016.2 |
| 20260503214552 | 79 | 359 | 3.0 | 7.0 | 0.00 | 0.02 | 0.00 | 52 | 1016.1 |
| 20260503213106 | 79 | 54 | 4.0 | 9.0 | 0.00 | 0.02 | 0.00 | 53 | 1016.0 |
| 20260503211555 | 79 | 351 | 2.0 | 8.0 | 0.00 | 0.02 | 0.00 | 53 | 1016.0 |
| 20260503210101 | 78 | 360 | 3.0 | 12.0 | 0.00 | 0.02 | 0.00 | 53 | 1016.1 |
| 20260503204600 | 79 | 0 | 2.0 | 7.0 | 0.00 | 0.07 | 0.00 | 51 | 1016.4 |
| 20260503203103 | 79 | 73 | 2.0 | 7.0 | 0.00 | 0.07 | 0.00 | 53 | 1016.4 |
| 20260503201553 | 79 | 60 | 2.0 | 9.0 | 0.00 | 0.07 | 0.00 | 53 | 1016.6 |
| 20260503200058 | 79 | 360 | 3.0 | 8.0 | 0.00 | 0.07 | 0.00 | 51 | 1016.6 |
| 20260503194553 | 80 | 94 | 3.0 | 10.0 | 0.00 | 0.14 | 0.00 | 52 | 1016.6 |
| 20260503193059 | 81 | 0 | 3.0 | 12.0 | 0.00 | 0.14 | 0.00 | 51 | 1017.0 |
| 20260503191622 | 80 | 25 | 4.0 | 9.0 | 0.00 | 0.14 | 0.00 | 53 | 1017.3 |
| 20260503190056 | 80 | 47 | 3.0 | 9.0 | 0.00 | 0.14 | 0.00 | 56 | 1017.5 |
| 20260503184601 | 78 | 63 | 3.0 | 7.0 | 0.00 | 0.19 | 0.00 | 57 | 1017.7 |
| 20260503183112 | 79 | 8 | 4.0 | 9.0 | 0.00 | 0.19 | 0.00 | 58 | 1018.0 |
| 20260503181553 | 78 | 351 | 5.0 | 11.0 | 0.00 | 0.19 | 0.00 | 59 | 1017.9 |
| 20260503180100 | 78 | 32 | 3.0 | 12.0 | 0.00 | 0.19 | 0.00 | 58 | 1018.1 |
| 20260503174558 | 78 | 347 | 2.0 | 8.0 | 0.00 | 0.19 | 0.00 | 60 | 1018.3 |
| 20260503173117 | 77 | 63 | 3.0 | 8.0 | 0.00 | 0.19 | 0.00 | 60 | 1018.3 |
| 20260503171553 | 77 | 350 | 3.0 | 9.0 | 0.00 | 0.19 | 0.00 | 61 | 1018.5 |
| 20260503120116 | 62 | 29 | 3.0 | 6.0 | 0.00 | 0.19 | 0.00 | 89 | 1017.5 |